Tracking 19817 objects as of 19-Aug-2019
HD Live streaming from Space Station
objects crossing your sky now

COSMOS 2251 DEB

Track COSMOS 2251 DEB now!
10-day predictions


NORAD ID: 34550
Int'l Code: 1993-036UL
Perigee: 675.8 km
Apogee: 932.8 km
Inclination: 74.0 °
Period: 100.8 minutes
Semi major axis: 7175 km
RCS: 0.0083 m2 (small)
Launch date: June 16, 1993
Source: Commonwealth of Independent States (former USSR) (CIS)
Launch site: PLESETSK MISSILE AND SPACE COMPLEX (PKMTR)

Note: This is SATELLITE DEBRIS
aabbcc
Your satellite tracking list
Your tracking list is empty




NASA's NSSDC Master Catalog

Two Line Element Set (TLE):
1 34550U 93036UL  19230.47909509 +.00000305 +00000-0 +11256-3 0  9992
2 34550 073.9933 009.4280 0179064 000.1961 359.9224 14.28374817541313
Source of the keplerian elements: AFSPC